Location: Courcelles
(49.2596°N, 1.7419°E)
Time: 22:12:11
(UTC+00:00)

NOAA 6 - Pass Details

Date: 17 November 2025
Orbit: 766 x 782 km, 98.6° (Epoch: 05 December)

Event Time Altitude Azimuth Distance (km) Brightness Sun altitude
Rises 17:52:59 0° 146° (SE) 3,254 7.0 -16.8°
Reaches altitude 10° 17:55:22 10° 141° (SE) 2,328 6.2 -17.2°
Maximum altitude 18:00:17 48° 68° (ENE) 1,012 4.2 -18.0°
Drops below altitude 10° 18:05:12 10° 355° (N) 2,335 6.5 -18.8°
Sets 18:07:35 0° 350° (N) 3,264 7.3 -19.1°
